SDS-4

导读

SDS-4是日本于2012年5月17日发射的微小型技术试验卫星,作为日本高校主导的空间技术研发项目成果,该卫星聚焦微纳卫星姿态确定与控制技术验证,探索三轴稳定控制系统在小型卫星平台的可靠性实现路径,为后续日本微卫星项目积累了关键工程经验,推动了低成本小型航天技术发展,是日本高校参与航天技术开发的典型案例之一。

基本信息
目录编号:
38339
目录名称:
SDS-4
国际标识:
2012-025C
轨道中心:
EARTH
卫星名称:
SDS-4
卫星全名:
--
卫星状态:
在轨 (已飞行5142 天)
发射日期:
2012-05-17 UTC
国别 :
日本 (JP)
星等 :
--
轨道信息
数据来源 国际轨道数据 AOE轨道数据
星历时间 2026-06-15T05:02:27+0800
6小时前
查看轨道信息
2026-06-14T03:00:00+0800
1天前
查看轨道信息
半长轴 7020.696km 7020.689km
偏心率 0.0005874 0.0005881
轨道倾角 98.137° 98.136°
近地点辐角 314.032° 316.259°
升交点赤经 261.785° 260.693°
平近点角 46.040° 42.585°
近地点 638.435km 638.423km
远地点 646.683km 646.681km
周期 97.573分钟 97.573分钟
每日圈数 14.758173 14.758195
详细信息
使用方式:
暂无
2D轨道图
3D轨道图
轨道高度分析图
轨道倾角分析图
轨道综合分析图
查看轨道综合分析图